Regional Weather Roundup
Issued by NWS

Home | Current Version | Previous Version | Graphics & Text | Print | Product List | Glossary On
Versions: 1 2 3 4 5 6 7 8 9 10 11 12 13 14 15 16 17 18 19 20 21 22 23 24 25 26 27 28 29 30 31 32 33 34 35 36 37 38 39 40 41 42 43 44 45 46 47 48 49 50
000
ASUS43 KBIS 231410
RWRND

NORTH DAKOTA REGIONAL WEATHER ROUNDUP
NATIONAL WEATHER SERVICE BISMARCK ND
900 AM CDT WED APR 23 2014

NOTE: "FAIR" INDICATES FEW OR NO CLOUDS BELOW 12,000 FEET WITH NO
SIGNIFICANT WEATHER AND/OR OBSTRUCTIONS TO VISIBILITY.


NDZ001>003-009>011-017-231500-
NORTHWEST NORTH DAKOTA

CITY           SKY/WX    TMP DP  RH WIND       PRES   REMARKS
WILLISTON      PTSUNNY   51  39  63 SE28G37   29.45R
MINOT          LGT RAIN  47  42  83 E24G38    29.60F
MINOT AFB      DRIZZLE   47  47  99 SE23G29   29.62S
$$

NDZ018>021-031>035-040>046-231500-
SOUTHWEST NORTH DAKOTA

CITY           SKY/WX    TMP DP  RH WIND       PRES   REMARKS
BISMARCK       CLOUDY    51  39  63 SE23G29   29.59F
DICKINSON      CLOUDY    50  36  58 SE20G28   29.42F
GARRISON         N/A     48  40  73 SE32G43   29.56F
HETTINGER ARPT CLOUDY    52  34  50 SE21G30   29.46R
$$

NDZ004>008-012>016-024-026-027-054-231500-
NORTHEAST NORTH DAKOTA

CITY           SKY/WX    TMP DP  RH WIND       PRES   REMARKS
GRAND FORKS    CLOUDY    47  30  51 SE20      29.89F
GRND FRKS AFB  CLOUDY    47  31  53 SE18G24   29.88F
DEVILS LAKE    CLOUDY    39  34  81 SE18      29.79R
$$

NDZ022-023-025-028>030-036>039-047>053-231500-
SOUTHEAST NORTH DAKOTA

CITY           SKY/WX    TMP DP  RH WIND       PRES   REMARKS
FARGO          LGT RAIN  45  37  73 SE21G39   29.91F
JAMESTOWN      CLOUDY    45  41  86 SE26G32   29.76R
$$




USA.gov is the U.S. government's official web portal to all federal, state and local government web resources and services.